CEB897 RPMD-RPVM

Flight info

Callsign CEB897
Flight time 0h 39m
Altitude 26000
Route JOFER3R JOFER W8 BOHOL BOHOL3P
Aircraft A20N/M-SDE2E3FGHIRWXY/LB1

Departure

Time 2026-05-06 04:55
Airport Francisco Bangoy International Airport (RPMD)

Arrival

Time 2026-05-06 05:35
Airport Mactan Cebu International Airport (RPVM)
Time Latitude Longitude Altitude Speed Heading
2026-05-06 04:36 7.12904 125.64513 69 ft 0 kts 323°
2026-05-06 04:47 7.12900 125.64516 78 ft 3 kts 323°
2026-05-06 04:47 7.12877 125.64533 67 ft 4 kts 323°
2026-05-06 04:47 7.12856 125.64553 75 ft 4 kts 294°
2026-05-06 04:47 7.12853 125.64582 67 ft 4 kts 248°
2026-05-06 04:48 7.12857 125.64590 71 ft 0 kts 231°
2026-05-06 04:50 7.12855 125.64588 74 ft 2 kts 231°
2026-05-06 04:50 7.12837 125.64566 76 ft 6 kts 230°
2026-05-06 04:50 7.12800 125.64522 70 ft 10 kts 228°
2026-05-06 04:50 7.12750 125.64468 78 ft 7 kts 224°
2026-05-06 04:51 7.12693 125.64454 76 ft 10 kts 161°
2026-05-06 04:51 7.12628 125.64505 68 ft 14 kts 140°
2026-05-06 04:51 7.12538 125.64547 70 ft 15 kts 204°
2026-05-06 04:51 7.12455 125.64462 72 ft 19 kts 229°
2026-05-06 04:52 7.12363 125.64354 71 ft 21 kts 229°
2026-05-06 04:52 7.12258 125.64234 71 ft 24 kts 229°
2026-05-06 04:52 7.12146 125.64103 72 ft 26 kts 230°
2026-05-06 04:52 7.12024 125.63963 74 ft 28 kts 229°
2026-05-06 04:53 7.11892 125.63811 67 ft 20 kts 230°
2026-05-06 04:53 7.11830 125.63739 64 ft 15 kts 229°
2026-05-06 04:53 7.11754 125.63644 65 ft 18 kts 247°
2026-05-06 04:53 7.11736 125.63539 70 ft 14 kts 223°
2026-05-06 04:54 7.11685 125.63561 70 ft 9 kts 114°
2026-05-06 04:54 7.11715 125.63613 69 ft 10 kts 44°
2026-05-06 04:54 7.11718 125.63616 69 ft 0 kts 44°
2026-05-06 04:54 7.11719 125.63617 65 ft 2 kts 44°
2026-05-06 04:55 7.11876 125.63793 75 ft 70 kts 48°
2026-05-06 04:55 7.12340 125.64326 71 ft 129 kts 49°
2026-05-06 04:55 7.13024 125.65109 250 ft 158 kts 47°
2026-05-06 04:55 7.13771 125.65912 929 ft 154 kts 34°
2026-05-06 04:56 7.14747 125.66198 1626 ft 151 kts 353°
2026-05-06 04:56 7.15822 125.66054 2151 ft 163 kts 351°
2026-05-06 04:56 7.16993 125.65869 2550 ft 178 kts 351°
2026-05-06 04:56 7.18288 125.65678 2862 ft 198 kts 352°
2026-05-06 04:57 7.19717 125.65488 3145 ft 221 kts 353°
2026-05-06 04:57 7.21321 125.65291 3515 ft 244 kts 353°
2026-05-06 04:57 7.23075 125.65084 4069 ft 262 kts 353°
2026-05-06 04:57 7.24899 125.64870 5037 ft 265 kts 354°
2026-05-06 04:58 7.26747 125.64651 5987 ft 270 kts 354°
2026-05-06 04:58 7.28621 125.64431 6877 ft 274 kts 354°
2026-05-06 04:58 7.30530 125.64208 7763 ft 277 kts 354°
2026-05-06 04:58 7.32462 125.63981 8626 ft 282 kts 354°
2026-05-06 04:59 7.34429 125.63752 9509 ft 286 kts 355°
2026-05-06 04:59 7.36424 125.63519 10319 ft 293 kts 355°
2026-05-06 04:59 7.38522 125.63273 10667 ft 315 kts 354°
2026-05-06 04:59 7.40780 125.63009 10911 ft 337 kts 354°
2026-05-06 05:00 7.43136 125.62731 11575 ft 343 kts 354°
2026-05-06 05:00 7.45491 125.62255 12350 ft 347 kts 343°
2026-05-06 05:00 7.47709 125.61254 13077 ft 354 kts 330°
2026-05-06 05:00 7.49709 125.59770 13816 ft 359 kts 323°
2026-05-06 05:01 7.51674 125.58175 14414 ft 364 kts 323°
2026-05-06 05:01 7.53665 125.56567 15017 ft 369 kts 323°
2026-05-06 05:01 7.55685 125.54941 15615 ft 375 kts 323°
2026-05-06 05:01 7.57715 125.53310 16194 ft 380 kts 323°
2026-05-06 05:02 7.59793 125.51642 16765 ft 385 kts 323°
2026-05-06 05:02 7.61901 125.49946 17288 ft 390 kts 323°
2026-05-06 05:02 7.64045 125.48227 17828 ft 395 kts 323°
2026-05-06 05:02 7.66211 125.46491 18373 ft 399 kts 323°
2026-05-06 05:03 7.68395 125.44737 18873 ft 403 kts 323°
2026-05-06 05:03 7.70593 125.42972 19401 ft 405 kts 322°
2026-05-06 05:03 7.72808 125.41194 19892 ft 409 kts 323°
2026-05-06 05:03 7.75046 125.39394 20267 ft 416 kts 323°
2026-05-06 05:04 7.77319 125.37565 20818 ft 417 kts 323°
2026-05-06 05:04 7.79597 125.35735 21329 ft 420 kts 323°
2026-05-06 05:04 7.81901 125.33884 21771 ft 424 kts 323°
2026-05-06 05:04 7.84197 125.32039 22274 ft 427 kts 323°
2026-05-06 05:05 7.86561 125.30138 22727 ft 431 kts 323°
2026-05-06 05:05 7.88922 125.28241 23195 ft 434 kts 323°
2026-05-06 05:05 7.91261 125.26359 23621 ft 437 kts 323°
2026-05-06 05:05 7.93637 125.24447 24038 ft 438 kts 323°
2026-05-06 05:06 7.96042 125.22554 24499 ft 438 kts 326°
2026-05-06 05:06 7.98633 125.20917 24849 ft 440 kts 333°
2026-05-06 05:06 8.01359 125.19508 25262 ft 441 kts 334°
2026-05-06 05:06 8.04099 125.18091 25606 ft 443 kts 334°
2026-05-06 05:07 8.06854 125.16658 25706 ft 445 kts 334°
2026-05-06 05:07 8.09617 125.15219 25793 ft 445 kts 334°
2026-05-06 05:07 8.12333 125.13804 25874 ft 445 kts 334°
2026-05-06 05:07 8.15091 125.12366 25878 ft 445 kts 334°
2026-05-06 05:08 8.17846 125.10930 25877 ft 445 kts 334°
2026-05-06 05:08 8.20596 125.09497 25885 ft 445 kts 334°
2026-05-06 05:08 8.23358 125.08057 25881 ft 445 kts 334°
2026-05-06 05:08 8.26112 125.06622 25883 ft 445 kts 334°
2026-05-06 05:09 8.28867 125.05186 25884 ft 445 kts 334°
2026-05-06 05:09 8.31627 125.03748 25878 ft 445 kts 334°
2026-05-06 05:09 8.34382 125.02311 25888 ft 445 kts 334°
2026-05-06 05:09 8.37130 125.00877 25886 ft 445 kts 334°
2026-05-06 05:10 8.39858 124.99451 25884 ft 446 kts 334°
2026-05-06 05:10 8.42626 124.98006 25880 ft 446 kts 334°
2026-05-06 05:10 8.45378 124.96568 25883 ft 446 kts 334°
2026-05-06 05:10 8.48138 124.95126 25887 ft 446 kts 334°
2026-05-06 05:11 8.50902 124.93682 25870 ft 445 kts 334°
2026-05-06 05:11 8.53653 124.92244 25873 ft 446 kts 334°
2026-05-06 05:11 8.56413 124.90802 25874 ft 447 kts 334°
2026-05-06 05:11 8.59175 124.89359 25872 ft 445 kts 334°
2026-05-06 05:12 8.61929 124.87918 25867 ft 446 kts 334°
2026-05-06 05:12 8.64651 124.86495 25870 ft 445 kts 334°
2026-05-06 05:12 8.67406 124.85054 25866 ft 446 kts 334°
2026-05-06 05:12 8.70167 124.83609 25857 ft 447 kts 334°
2026-05-06 05:13 8.72929 124.82164 25854 ft 446 kts 334°
2026-05-06 05:13 8.75697 124.80714 25859 ft 447 kts 334°
2026-05-06 05:13 8.78470 124.79262 25852 ft 447 kts 334°
2026-05-06 05:13 8.81236 124.77816 25857 ft 445 kts 334°
2026-05-06 05:14 8.83957 124.76391 25856 ft 447 kts 334°
2026-05-06 05:14 8.86723 124.74943 25849 ft 445 kts 334°
2026-05-06 05:14 8.89478 124.73501 25850 ft 445 kts 334°
2026-05-06 05:14 8.92236 124.72057 25851 ft 447 kts 334°
2026-05-06 05:15 8.94993 124.70614 25847 ft 446 kts 334°
2026-05-06 05:15 8.97758 124.69166 25844 ft 447 kts 334°
2026-05-06 05:15 9.00488 124.67736 25850 ft 447 kts 334°
2026-05-06 05:15 9.03253 124.66288 25846 ft 445 kts 334°
2026-05-06 05:16 9.06020 124.64837 25853 ft 448 kts 334°
2026-05-06 05:16 9.08785 124.63387 25847 ft 446 kts 334°
2026-05-06 05:16 9.11545 124.61939 25816 ft 446 kts 333°
2026-05-06 05:16 9.14268 124.60509 25582 ft 447 kts 334°
2026-05-06 05:17 9.17039 124.59055 25102 ft 449 kts 334°
2026-05-06 05:17 9.19828 124.57591 24363 ft 453 kts 334°
2026-05-06 05:17 9.22625 124.56123 23726 ft 452 kts 334°
2026-05-06 05:17 9.25409 124.54661 23044 ft 449 kts 334°
2026-05-06 05:18 9.28169 124.53212 22476 ft 442 kts 334°
2026-05-06 05:18 9.30852 124.51802 21881 ft 437 kts 334°
2026-05-06 05:18 9.33546 124.50387 21281 ft 432 kts 334°
2026-05-06 05:18 9.36202 124.48991 20646 ft 428 kts 334°
2026-05-06 05:19 9.38849 124.47601 20065 ft 423 kts 334°
2026-05-06 05:19 9.41422 124.46247 19476 ft 420 kts 334°
2026-05-06 05:19 9.44012 124.44884 18879 ft 417 kts 334°
2026-05-06 05:19 9.46578 124.43534 18283 ft 414 kts 334°
2026-05-06 05:20 9.49132 124.42193 17675 ft 410 kts 334°
2026-05-06 05:20 9.51649 124.40868 17089 ft 404 kts 334°
2026-05-06 05:20 9.54135 124.39561 16502 ft 399 kts 333°
2026-05-06 05:20 9.56545 124.38183 15936 ft 395 kts 327°
2026-05-06 05:21 9.58698 124.36517 15337 ft 394 kts 320°
2026-05-06 05:21 9.60678 124.34621 14802 ft 389 kts 317°
2026-05-06 05:21 9.62646 124.32735 14247 ft 386 kts 318°
2026-05-06 05:21 9.64593 124.30878 13695 ft 382 kts 319°
2026-05-06 05:22 9.66515 124.29048 13384 ft 371 kts 318°
2026-05-06 05:22 9.68352 124.27295 13094 ft 355 kts 319°
2026-05-06 05:22 9.70163 124.25569 12140 ft 359 kts 318°
2026-05-06 05:22 9.71962 124.23856 11517 ft 357 kts 318°
2026-05-06 05:23 9.73771 124.22129 11236 ft 354 kts 319°
2026-05-06 05:23 9.75540 124.20443 11135 ft 342 kts 318°
2026-05-06 05:23 9.78816 124.17310 10748 ft 307 kts 319°
2026-05-06 05:24 9.80359 124.15835 10225 ft 303 kts 319°
2026-05-06 05:24 9.81881 124.14384 10007 ft 300 kts 319°
2026-05-06 05:24 9.83405 124.12932 9854 ft 305 kts 319°
2026-05-06 05:24 9.84937 124.11469 9548 ft 301 kts 319°
2026-05-06 05:25 9.86458 124.10017 9130 ft 299 kts 319°
2026-05-06 05:25 9.87966 124.08577 8809 ft 297 kts 319°
2026-05-06 05:25 9.89466 124.07144 8435 ft 295 kts 319°
2026-05-06 05:25 9.90964 124.05713 7997 ft 296 kts 319°
2026-05-06 05:26 9.92465 124.04280 7544 ft 297 kts 319°
2026-05-06 05:26 9.93968 124.02842 7160 ft 295 kts 319°
2026-05-06 05:26 9.95460 124.01414 6770 ft 294 kts 319°
2026-05-06 05:26 9.96945 123.99996 6406 ft 293 kts 318°
2026-05-06 05:27 9.98422 123.98587 6068 ft 290 kts 318°
2026-05-06 05:27 9.99882 123.97191 5717 ft 287 kts 318°
2026-05-06 05:27 10.01313 123.95822 5365 ft 285 kts 319°
2026-05-06 05:27 10.02752 123.94443 5020 ft 283 kts 319°
2026-05-06 05:28 10.04178 123.93079 4675 ft 281 kts 319°
2026-05-06 05:28 10.05597 123.91722 4317 ft 277 kts 319°
2026-05-06 05:28 10.07034 123.90529 4145 ft 255 kts 335°
2026-05-06 05:28 10.08640 123.90077 4060 ft 231 kts
2026-05-06 05:29 10.10186 123.90156 3995 ft 212 kts
2026-05-06 05:29 10.11580 123.90238 4046 ft 188 kts
2026-05-06 05:29 10.12832 123.90308 3995 ft 170 kts
2026-05-06 05:29 10.13944 123.90369 4003 ft 149 kts
2026-05-06 05:30 10.14898 123.90419 3990 ft 131 kts
2026-05-06 05:30 10.15835 123.90472 3998 ft 136 kts
2026-05-06 05:30 10.16769 123.90525 3887 ft 133 kts
2026-05-06 05:30 10.17699 123.90578 3589 ft 137 kts
2026-05-06 05:31 10.18662 123.90635 3281 ft 140 kts
2026-05-06 05:31 10.19647 123.90691 2966 ft 142 kts
2026-05-06 05:31 10.20615 123.90746 2654 ft 142 kts
2026-05-06 05:31 10.21597 123.90802 2342 ft 143 kts
2026-05-06 05:32 10.22584 123.90856 1988 ft 143 kts
2026-05-06 05:32 10.23582 123.90955 1682 ft 141 kts 18°
2026-05-06 05:32 10.24372 123.91467 1411 ft 137 kts 46°
2026-05-06 05:32 10.25046 123.92169 1123 ft 138 kts 46°
2026-05-06 05:33 10.25695 123.92833 1063 ft 130 kts 45°
2026-05-06 05:33 10.26368 123.93512 1033 ft 136 kts 46°
2026-05-06 05:33 10.27013 123.94176 873 ft 130 kts 46°
2026-05-06 05:33 10.27664 123.94822 716 ft 126 kts 45°
2026-05-06 05:34 10.28273 123.95429 491 ft 122 kts 45°
2026-05-06 05:34 10.28863 123.96035 337 ft 126 kts 45°
2026-05-06 05:34 10.29494 123.96690 143 ft 130 kts 45°
2026-05-06 05:34 10.30128 123.97330 34 ft 128 kts 45°
2026-05-06 05:35 10.30487 123.97682 35 ft 77 kts 42°
2026-05-06 05:35 10.30646 123.97835 34 ft 1 kts 44°
2026-05-06 05:35 10.30665 123.97853 35 ft 6 kts 43°
2026-05-06 05:35 10.30705 123.97887 36 ft 6 kts 17°
2026-05-06 05:36 10.30731 123.97864 36 ft 7 kts 304°
2026-05-06 05:36 10.30764 123.97815 36 ft 10 kts 304°
2026-05-06 05:36 10.30809 123.97752 37 ft 11 kts 307°
2026-05-06 05:36 10.30865 123.97708 37 ft 0 kts 324°
2026-05-06 05:37 10.30873 123.97702 37 ft 3 kts 324°
2026-05-06 05:37 10.30903 123.97682 37 ft 6 kts 339°
2026-05-06 05:37 10.30927 123.97697 37 ft 5 kts 36°
2026-05-06 05:37 10.30953 123.97728 37 ft 7 kts 50°
2026-05-06 05:38 10.30990 123.97770 37 ft 9 kts 47°
2026-05-06 05:38 10.31037 123.97820 38 ft 11 kts 44°
2026-05-06 05:38 10.31094 123.97875 38 ft 12 kts 44°
2026-05-06 05:38 10.31157 123.97937 38 ft 13 kts 44°
2026-05-06 05:39 10.31237 123.97969 39 ft 13 kts 342°
2026-05-06 05:39 10.31313 123.97910 39 ft 15 kts 327°
2026-05-06 05:39 10.31385 123.97932 38 ft 11 kts 48°
2026-05-06 05:39 10.31444 123.97987 39 ft 12 kts 41°
2026-05-06 05:40 10.31506 123.98023 39 ft 8 kts 337°
2026-05-06 05:40 10.31544 123.97983 39 ft 10 kts 320°
2026-05-06 05:40 10.31550 123.97978 39 ft 0 kts 317°